+ View the NASA Portal
+ Center for Near-Earth Object Studies
IMPORTANT:
The SSD Announcement email list is now available. Major changes are coming in the near future, including possible hostname and/or URL changes. To be notified of such changes, subscribe to this email list.
Please visit
this page
for more details.
Don't show this message again
JPL Small-Body Database Browser
Search:
[
help
]
266635 (2008 RS82)
Classification:
Main-belt Asteroid
SPK-ID:
2266635
[
Ephemeris
|
Orbit Diagram
|
Orbital Elements
|
Mission Design
|
Physical Parameters
|
Discovery Circumstances
|
Close-Approach Data
]
[ show orbit diagram ]
Orbital Elements at Epoch 2458600.5 (2019-Apr-27.0) TDB
Reference:
JPL 9
(heliocentric ecliptic J2000)
Element
Value
Uncertainty (1-sigma)
Units
e
.03208479206154285
1.0348e-07
a
3.134121838074408
5.7018e-08
au
q
3.03356419060425
2.9748e-07
au
i
5.13048894429711
1.0558e-05
deg
node
305.551688521525
9.6041e-05
deg
peri
258.2348599824547
0.00018633
deg
M
105.6810954644546
0.00016409
deg
t
p
2458005.568388245489
(2017-Sep-09.06838825)
0.00092006
TDB
period
2026.619607701368
5.55
5.5304e-05
1.514e-07
d
yr
n
.1776357036278353
4.8475e-09
deg/d
Q
3.234679485544566
5.8847e-08
au
Orbit Determination Parameters
# obs. used (total)
120
data-arc span
7175 days (19.64 yr)
first obs. used
2000-02-02
last obs. used
2019-09-25
planetary ephem.
DE431
SB-pert. ephem.
SB431-N16
condition code
0
norm. resid. RMS
.5191
source
ORB
producer
Otto Matic
solution date
2019-Nov-08 04:05:28
Additional Information
Earth MOID
= 2.03525 au
Jupiter MOID
= 1.7737 au
T_jup
= 3.205
[ show covariance matrix ]
[
Ephemeris
|
Orbit Diagram
|
Orbital Elements
|
Mission Design
|
Physical Parameters
|
Discovery Circumstances
|
Close-Approach Data
]
Physical Parameter Table
Parameter
Symbol
Value
Units
Sigma
Reference
Notes
absolute magnitude
H
16.2
n/a
MPO266733
diameter
diameter
4.440
km
1.015
urn:nasa:pds:neowise_diameters_albedos::2.0[mainbelt] (http://adsabs.harvard.edu/abs/2011ApJ...741...68M)
geometric albedo
albedo
0.036
0.010
urn:nasa:pds:neowise_diameters_albedos::2.0[mainbelt] (http://adsabs.harvard.edu/abs/2011ApJ...741...68M)
266635 (2008 RS82)
Discovered 2008-Sep-04 by Spacewatch at Kitt Peak
Reference:
20110218/Numbers.arc
Last Updated:
2011-02-22
[ show close-approach data ]
Alternate Designations
2008 RS82
= 2003 UA306
[
Ephemeris
|
Orbit Diagram
|
Orbital Elements
|
Mission Design
|
Physical Parameters
|
Discovery Circumstances
|
Close-Approach Data
]
2019-Dec-11 23:37 UT
(server date/time)
Site Manager:
Ryan S. Park
Webmaster
:
Alan B. Chamberlin